| time (UTC) | temp F | wind direction | speed MPH | gust MPH | rain 1hr in | rain 24hr in | rain mn in | humidity % | barometer mb |
| 20260509201554 | 72 | 0 | 2.0 | 7.0 | 0.00 | 0.00 | 0.00 | 48 | 1007.8 |
| 20260509201035 | 71 | 0 | 0.0 | 6.0 | 0.00 | 0.00 | 0.00 | 47 | 1007.8 |
| 20260509200535 | 71 | 223 | 2.0 | 6.0 | 0.00 | 0.00 | 0.00 | 47 | 1007.9 |
| 20260509200057 | 70 | 0 | 0.0 | 5.0 | 0.00 | 0.00 | 0.00 | 47 | 1007.9 |
| 20260509195534 | 70 | 0 | 1.0 | 4.0 | 0.00 | 0.00 | 0.00 | 50 | 1008.1 |
| 20260509195035 | 70 | 0 | 0.0 | 4.0 | 0.00 | 0.00 | 0.00 | 47 | 1008.0 |
| 20260509194545 | 70 | 0 | 0.0 | 7.0 | 0.00 | 0.00 | 0.00 | 47 | 1008.3 |
| 20260509194035 | 70 | 221 | 2.0 | 8.0 | 0.00 | 0.00 | 0.00 | 47 | 1008.2 |
| 20260509193535 | 70 | 161 | 2.0 | 8.0 | 0.00 | 0.00 | 0.00 | 51 | 1008.4 |
| 20260509193100 | 70 | 115 | 1.0 | 7.0 | 0.00 | 0.00 | 0.00 | 49 | 1008.3 |
| 20260509192535 | 71 | 248 | 3.0 | 10.0 | 0.00 | 0.00 | 0.00 | 47 | 1008.4 |
| 20260509192032 | 70 | 107 | 2.0 | 10.0 | 0.00 | 0.00 | 0.00 | 50 | 1008.5 |
| 20260509191545 | 70 | 84 | 1.0 | 4.0 | 0.00 | 0.00 | 0.00 | 50 | 1008.6 |
| 20260509191035 | 69 | 332 | 2.0 | 10.0 | 0.00 | 0.00 | 0.00 | 50 | 1008.5 |
| 20260509190537 | 69 | 249 | 3.0 | 10.0 | 0.00 | 0.00 | 0.00 | 48 | 1008.6 |
| 20260509190046 | 70 | 232 | 4.0 | 9.0 | 0.00 | 0.00 | 0.00 | 51 | 1008.7 |
| 20260509185533 | 69 | 78 | 3.0 | 8.0 | 0.00 | 0.00 | 0.00 | 51 | 1008.6 |
| 20260509185035 | 69 | 165 | 2.0 | 9.0 | 0.00 | 0.00 | 0.00 | 51 | 1008.7 |
| 20260509184558 | 69 | 120 | 5.0 | 9.0 | 0.00 | 0.00 | 0.00 | 53 | 1008.8 |
| 20260509184034 | 69 | 304 | 2.0 | 8.0 | 0.00 | 0.00 | 0.00 | 54 | 1008.8 |
| 20260509183532 | 68 | 0 | 2.0 | 8.0 | 0.00 | 0.00 | 0.00 | 55 | 1008.9 |
| 20260509183046 | 68 | 82 | 3.0 | 9.0 | 0.00 | 0.00 | 0.00 | 51 | 1009.0 |
| 20260509182534 | 68 | 206 | 3.0 | 10.0 | 0.00 | 0.00 | 0.00 | 49 | 1009.0 |
| 20260509182032 | 67 | 27 | 4.0 | 10.0 | 0.00 | 0.00 | 0.00 | 54 | 1009.1 |
| 20260509181547 | 67 | 63 | 2.0 | 9.0 | 0.00 | 0.00 | 0.00 | 55 | 1009.2 |
| 20260509181033 | 67 | 127 | 4.0 | 9.0 | 0.00 | 0.00 | 0.00 | 52 | 1009.4 |
| 20260509180535 | 68 | 58 | 3.0 | 9.0 | 0.00 | 0.00 | 0.00 | 54 | 1009.4 |
| 20260509180043 | 67 | 85 | 3.0 | 9.0 | 0.00 | 0.00 | 0.00 | 55 | 1009.6 |
| 20260509175534 | 67 | 60 | 3.0 | 9.0 | 0.00 | 0.00 | 0.00 | 55 | 1009.7 |
| 20260509175034 | 67 | 55 | 4.0 | 9.0 | 0.00 | 0.00 | 0.00 | 52 | 1009.9 |
| 20260509174538 | 67 | 24 | 3.0 | 10.0 | 0.00 | 0.00 | 0.00 | 53 | 1009.7 |
| 20260509174034 | 66 | 343 | 4.0 | 11.0 | 0.00 | 0.00 | 0.00 | 53 | 1009.5 |
| 20260509173534 | 66 | 43 | 3.0 | 11.0 | 0.00 | 0.00 | 0.00 | 55 | 1009.6 |
| 20260509173044 | 66 | 46 | 6.0 | 11.0 | 0.00 | 0.00 | 0.00 | 52 | 1009.7 |
| 20260509172535 | 67 | 55 | 2.0 | 8.0 | 0.00 | 0.00 | 0.00 | 52 | 1009.9 |
| 20260509172035 | 66 | 36 | 3.0 | 8.0 | 0.00 | 0.00 | 0.00 | 51 | 1009.6 |
| 20260509171603 | 67 | 32 | 3.0 | 7.0 | 0.00 | 0.00 | 0.00 | 52 | 1009.6 |
| 20260509171034 | 66 | 74 | 2.0 | 7.0 | 0.00 | 0.00 | 0.00 | 52 | 1009.7 |
| 20260509170535 | 66 | 65 | 2.0 | 7.0 | 0.00 | 0.00 | 0.00 | 52 | 1009.9 |
| 20260509170044 | 67 | 42 | 3.0 | 7.0 | 0.00 | 0.00 | 0.00 | 51 | 1009.9 |
| 20260509165532 | 67 | 44 | 2.0 | 5.0 | 0.00 | 0.00 | 0.00 | 49 | 1010.1 |
| 20260509165034 | 67 | 0 | 2.0 | 5.0 | 0.00 | 0.00 | 0.00 | 47 | 1010.0 |
| 20260509164543 | 67 | 342 | 2.0 | 5.0 | 0.00 | 0.00 | 0.00 | 48 | 1010.1 |
| 20260509164034 | 67 | 96 | 1.0 | 5.0 | 0.00 | 0.00 | 0.00 | 48 | 1010.0 |
| 20260509163534 | 67 | 27 | 2.0 | 4.0 | 0.00 | 0.00 | 0.00 | 46 | 1010.0 |
| 20260509163041 | 67 | 136 | 1.0 | 3.0 | 0.00 | 0.00 | 0.00 | 45 | 1010.0 |
| 20260509162535 | 67 | 75 | 0.0 | 3.0 | 0.00 | 0.00 | 0.00 | 47 | 1009.9 |
| 20260509162035 | 67 | 57 | 1.0 | 3.0 | 0.00 | 0.00 | 0.00 | 45 | 1009.9 |
| 20260509161538 | 67 | 0 | 1.0 | 7.0 | 0.00 | 0.00 | 0.00 | 46 | 1009.9 |
| 20260509161034 | 67 | 252 | 2.0 | 7.0 | 0.00 | 0.00 | 0.00 | 48 | 1010.0 |
| 20260509160532 | 67 | 265 | 0.0 | 6.0 | 0.00 | 0.00 | 0.00 | 47 | 1010.0 |
| 20260509160048 | 67 | 179 | 1.0 | 6.0 | 0.00 | 0.00 | 0.00 | 47 | 1009.9 |
| 20260509155533 | 67 | 0 | 0.0 | 3.0 | 0.00 | 0.00 | 0.00 | 46 | 1009.8 |
| 20260509155033 | 67 | 291 | 1.0 | 3.0 | 0.00 | 0.00 | 0.00 | 48 | 1009.6 |
| 20260509154549 | 67 | 277 | 1.0 | 3.0 | 0.00 | 0.00 | 0.00 | 47 | 1009.6 |
| 20260509154034 | 67 | 0 | 0.0 | 3.0 | 0.00 | 0.00 | 0.00 | 48 | 1009.5 |
| 20260509153626 | 66 | 0 | 0.0 | 3.0 | 0.00 | 0.00 | 0.00 | 48 | 1009.7 |
| 20260509153049 | 66 | 0 | 0.0 | 6.0 | 0.00 | 0.00 | 0.00 | 52 | 1009.8 |
| 20260509152535 | 66 | 225 | 0.0 | 6.0 | 0.00 | 0.00 | 0.00 | 54 | 1009.9 |
| 20260509152035 | 65 | 225 | 1.0 | 6.0 | 0.00 | 0.00 | 0.00 | 51 | 1010.0 |
| 20260509151627 | 65 | 61 | 1.0 | 7.0 | 0.00 | 0.00 | 0.00 | 52 | 1010.0 |
| 20260509151033 | 65 | 173 | 3.0 | 7.0 | 0.00 | 0.00 | 0.00 | 54 | 1010.1 |
| 20260509150534 | 65 | 165 | 2.0 | 7.0 | 0.00 | 0.00 | 0.00 | 55 | 1010.2 |
| 20260509150100 | 64 | 178 | 1.0 | 7.0 | 0.00 | 0.00 | 0.00 | 54 | 1010.1 |
| 20260509145532 | 64 | 97 | 2.0 | 7.0 | 0.00 | 0.00 | 0.00 | 55 | 1010.3 |
| 20260509145033 | 64 | 155 | 1.0 | 7.0 | 0.00 | 0.00 | 0.00 | 53 | 1010.2 |
| 20260509144651 | 64 | 298 | 1.0 | 5.0 | 0.00 | 0.00 | 0.00 | 54 | 1010.2 |
| 20260509144040 | 64 | 231 | 1.0 | 5.0 | 0.00 | 0.00 | 0.00 | 55 | 1010.2 |
| 20260509143534 | 63 | 0 | 0.0 | 5.0 | 0.00 | 0.00 | 0.00 | 56 | 1010.1 |
| 20260509143051 | 63 | 208 | 0.0 | 6.0 | 0.00 | 0.00 | 0.00 | 55 | 1010.1 |
| 20260509142536 | 63 | 259 | 1.0 | 7.0 | 0.00 | 0.00 | 0.00 | 55 | 1010.4 |
| 20260509142032 | 63 | 267 | 2.0 | 9.0 | 0.00 | 0.00 | 0.00 | 54 | 1010.4 |
| 20260509141547 | 63 | 235 | 1.0 | 9.0 | 0.00 | 0.00 | 0.00 | 55 | 1010.4 |
| 20260509141036 | 62 | 293 | 1.0 | 9.0 | 0.00 | 0.00 | 0.00 | 56 | 1010.6 |
| 20260509140532 | 62 | 239 | 3.0 | 9.0 | 0.00 | 0.00 | 0.00 | 56 | 1010.6 |
| 20260509140045 | 62 | 186 | 3.0 | 7.0 | 0.00 | 0.00 | 0.00 | 56 | 1010.6 |
| 20260509135538 | 61 | 209 | 3.0 | 7.0 | 0.00 | 0.00 | 0.00 | 56 | 1010.8 |
| 20260509135035 | 61 | 231 | 1.0 | 6.0 | 0.00 | 0.00 | 0.00 | 58 | 1010.8 |
| 20260509134544 | 60 | 230 | 3.0 | 6.0 | 0.00 | 0.00 | 0.00 | 58 | 1010.9 |
| 20260509134033 | 60 | 216 | 2.0 | 6.0 | 0.00 | 0.00 | 0.00 | 58 | 1010.9 |
| 20260509133538 | 60 | 279 | 1.0 | 5.0 | 0.00 | 0.00 | 0.00 | 58 | 1010.9 |
| 20260509133044 | 60 | 237 | 1.0 | 5.0 | 0.00 | 0.00 | 0.00 | 59 | 1010.8 |
| 20260509132533 | 60 | 237 | 2.0 | 5.0 | 0.00 | 0.00 | 0.00 | 56 | 1010.8 |
| 20260509132036 | 60 | 256 | 3.0 | 7.0 | 0.00 | 0.00 | 0.00 | 56 | 1010.8 |
| 20260509131543 | 59 | 252 | 2.0 | 7.0 | 0.00 | 0.00 | 0.00 | 56 | 1010.7 |
| 20260509131035 | 59 | 243 | 1.0 | 5.0 | 0.00 | 0.00 | 0.00 | 57 | 1010.5 |
| 20260509130535 | 59 | 182 | 1.0 | 5.0 | 0.00 | 0.00 | 0.00 | 57 | 1010.5 |
| 20260509130042 | 59 | 220 | 1.0 | 5.0 | 0.00 | 0.00 | 0.00 | 57 | 1010.7 |
| 20260509125531 | 59 | 265 | 2.0 | 5.0 | 0.00 | 0.00 | 0.00 | 57 | 1010.6 |
| 20260509125034 | 59 | 241 | 2.0 | 6.0 | 0.00 | 0.00 | 0.00 | 57 | 1010.6 |
| 20260509124604 | 58 | 213 | 2.0 | 7.0 | 0.00 | 0.00 | 0.00 | 56 | 1010.8 |
| 20260509124034 | 58 | 228 | 2.0 | 8.0 | 0.00 | 0.00 | 0.00 | 56 | 1010.7 |
| 20260509123532 | 58 | 240 | 3.0 | 8.0 | 0.00 | 0.00 | 0.00 | 56 | 1010.7 |
| 20260509123045 | 58 | 218 | 3.0 | 7.0 | 0.00 | 0.00 | 0.00 | 56 | 1010.7 |
| 20260509122532 | 58 | 235 | 2.0 | 6.0 | 0.00 | 0.00 | 0.00 | 56 | 1010.8 |
| 20260509122033 | 58 | 286 | 2.0 | 4.0 | 0.00 | 0.00 | 0.00 | 56 | 1010.7 |
| 20260509121547 | 58 | 244 | 1.0 | 7.0 | 0.00 | 0.00 | 0.00 | 56 | 1010.7 |
| 20260509121038 | 58 | 0 | 2.0 | 8.0 | 0.00 | 0.00 | 0.00 | 55 | 1010.7 |
| 20260509120534 | 58 | 263 | 3.0 | 9.0 | 0.00 | 0.00 | 0.00 | 55 | 1010.7 |
| 20260509120043 | 58 | 261 | 4.0 | 9.0 | 0.00 | 0.00 | 0.00 | 55 | 1010.8 |
| 20260509115531 | 58 | 268 | 4.0 | 8.0 | 0.00 | 0.00 | 0.00 | 55 | 1010.8 |
| 20260509115034 | 58 | 265 | 2.0 | 8.0 | 0.00 | 0.00 | 0.00 | 55 | 1010.7 |
| 20260509114543 | 58 | 290 | 2.0 | 8.0 | 0.00 | 0.00 | 0.00 | 55 | 1010.6 |
| 20260509114034 | 58 | 281 | 3.0 | 8.0 | 0.00 | 0.00 | 0.00 | 55 | 1010.6 |
| 20260509113541 | 58 | 252 | 3.0 | 8.0 | 0.00 | 0.00 | 0.00 | 55 | 1010.7 |
| 20260509113044 | 58 | 248 | 2.0 | 8.0 | 0.00 | 0.00 | 0.00 | 55 | 1010.6 |
| 20260509112534 | 57 | 242 | 3.0 | 8.0 | 0.00 | 0.00 | 0.00 | 55 | 1010.6 |
| 20260509112031 | 57 | 286 | 2.0 | 5.0 | 0.00 | 0.00 | 0.00 | 55 | 1010.6 |
| 20260509111543 | 57 | 224 | 1.0 | 6.0 | 0.00 | 0.00 | 0.00 | 55 | 1010.6 |
| 20260509111036 | 57 | 268 | 2.0 | 6.0 | 0.00 | 0.00 | 0.00 | 55 | 1010.6 |
| 20260509110534 | 57 | 244 | 2.0 | 7.0 | 0.00 | 0.00 | 0.00 | 55 | 1010.6 |
| 20260509110047 | 57 | 0 | 2.0 | 7.0 | 0.00 | 0.00 | 0.00 | 55 | 1010.6 |
| 20260509105533 | 57 | 0 | 3.0 | 9.0 | 0.00 | 0.00 | 0.00 | 55 | 1010.5 |
| 20260509105034 | 57 | 295 | 2.0 | 9.0 | 0.00 | 0.00 | 0.00 | 55 | 1010.6 |
| 20260509104540 | 57 | 302 | 2.0 | 9.0 | 0.00 | 0.00 | 0.00 | 55 | 1010.6 |
| 20260509104033 | 57 | 304 | 2.0 | 7.0 | 0.00 | 0.00 | 0.00 | 55 | 1010.6 |
| 20260509103538 | 57 | 281 | 2.0 | 6.0 | 0.00 | 0.00 | 0.00 | 55 | 1010.5 |
| 20260509103048 | 57 | 265 | 1.0 | 3.0 | 0.00 | 0.00 | 0.00 | 56 | 1010.6 |
| 20260509102533 | 57 | 253 | 1.0 | 4.0 | 0.00 | 0.00 | 0.00 | 56 | 1010.6 |
| 20260509102032 | 57 | 0 | 0.0 | 5.0 | 0.00 | 0.00 | 0.00 | 56 | 1010.6 |
| 20260509101546 | 57 | 236 | 1.0 | 5.0 | 0.00 | 0.00 | 0.00 | 56 | 1010.5 |
| 20260509101035 | 57 | 310 | 1.0 | 7.0 | 0.00 | 0.00 | 0.00 | 56 | 1010.6 |
| 20260509100533 | 57 | 284 | 3.0 | 7.0 | 0.00 | 0.00 | 0.00 | 55 | 1010.4 |
| 20260509100052 | 57 | 247 | 0.0 | 7.0 | 0.00 | 0.00 | 0.00 | 56 | 1010.3 |
| 20260509095534 | 57 | 300 | 2.0 | 7.0 | 0.00 | 0.00 | 0.00 | 55 | 1010.3 |
| 20260509095039 | 57 | 279 | 2.0 | 7.0 | 0.00 | 0.00 | 0.00 | 56 | 1010.3 |
| 20260509094550 | 57 | 279 | 2.0 | 6.0 | 0.00 | 0.00 | 0.00 | 55 | 1010.5 |
| 20260509094034 | 57 | 278 | 3.0 | 7.0 | 0.00 | 0.00 | 0.00 | 55 | 1010.4 |
| 20260509093535 | 57 | 271 | 2.0 | 7.0 | 0.00 | 0.00 | 0.00 | 56 | 1010.6 |
| 20260509093045 | 56 | 276 | 2.0 | 7.0 | 0.00 | 0.00 | 0.00 | 56 | 1010.6 |
| 20260509092535 | 56 | 0 | 1.0 | 7.0 | 0.00 | 0.00 | 0.00 | 56 | 1010.6 |
| 20260509092036 | 57 | 265 | 1.0 | 6.0 | 0.00 | 0.00 | 0.00 | 56 | 1010.5 |
| 20260509091542 | 57 | 222 | 2.0 | 6.0 | 0.00 | 0.00 | 0.00 | 56 | 1010.5 |
| 20260509091037 | 57 | 244 | 1.0 | 8.0 | 0.00 | 0.00 | 0.00 | 56 | 1010.5 |
| 20260509090539 | 57 | 303 | 0.0 | 8.0 | 0.00 | 0.00 | 0.00 | 56 | 1010.5 |
| 20260509090049 | 57 | 246 | 2.0 | 8.0 | 0.00 | 0.00 | 0.00 | 55 | 1010.3 |
| 20260509085534 | 56 | 275 | 1.0 | 7.0 | 0.00 | 0.00 | 0.00 | 56 | 1010.4 |
| 20260509085036 | 56 | 238 | 1.0 | 4.0 | 0.00 | 0.00 | 0.00 | 56 | 1010.5 |
| 20260509084553 | 56 | 290 | 1.0 | 4.0 | 0.00 | 0.00 | 0.00 | 56 | 1010.7 |
| 20260509084036 | 56 | 294 | 0.0 | 6.0 | 0.00 | 0.00 | 0.00 | 57 | 1010.6 |
| 20260509083539 | 56 | 252 | 1.0 | 6.0 | 0.00 | 0.00 | 0.00 | 57 | 1010.7 |
| 20260509083047 | 56 | 0 | 1.0 | 6.0 | 0.00 | 0.00 | 0.00 | 57 | 1010.6 |
| 20260509082535 | 56 | 285 | 0.0 | 4.0 | 0.00 | 0.00 | 0.00 | 58 | 1010.8 |
| 20260509082035 | 56 | 301 | 1.0 | 7.0 | 0.00 | 0.00 | 0.00 | 57 | 1010.8 |
| 20260509081548 | 56 | 0 | 2.0 | 7.0 | 0.00 | 0.00 | 0.00 | 58 | 1010.8 |
| 20260509081038 | 56 | 348 | 2.0 | 3.0 | 0.00 | 0.00 | 0.00 | 58 | 1010.7 |
| 20260509080538 | 56 | 0 | 1.0 | 4.0 | 0.00 | 0.00 | 0.00 | 59 | 1010.8 |
| 20260509080044 | 56 | 227 | 1.0 | 4.0 | 0.00 | 0.00 | 0.00 | 59 | 1010.9 |
| 20260509075536 | 56 | 198 | 0.0 | 4.0 | 0.00 | 0.00 | 0.00 | 59 | 1010.9 |
| 20260509075037 | 56 | 263 | 2.0 | 4.0 | 0.00 | 0.00 | 0.00 | 59 | 1010.9 |
| 20260509074559 | 56 | 221 | 1.0 | 4.0 | 0.00 | 0.00 | 0.00 | 59 | 1011.0 |
| 20260509074034 | 56 | 261 | 0.0 | 4.0 | 0.00 | 0.00 | 0.00 | 60 | 1011.0 |
| 20260509073536 | 56 | 294 | 0.0 | 5.0 | 0.00 | 0.00 | 0.00 | 59 | 1011.0 |
| 20260509073055 | 56 | 248 | 1.0 | 5.0 | 0.00 | 0.00 | 0.00 | 59 | 1011.1 |
| 20260509072539 | 56 | 275 | 1.0 | 5.0 | 0.00 | 0.00 | 0.00 | 59 | 1011.2 |
| 20260509072035 | 56 | 0 | 0.0 | 2.0 | 0.00 | 0.00 | 0.00 | 59 | 1011.1 |
| 20260509071557 | 56 | 271 | 0.0 | 2.0 | 0.00 | 0.00 | 0.00 | 58 | 1011.1 |
| 20260509071039 | 56 | 272 | 0.0 | 2.0 | 0.00 | 0.00 | 0.00 | 58 | 1011.2 |
| 20260509070534 | 56 | 0 | 0.0 | 4.0 | 0.00 | 0.00 | 0.00 | 57 | 1011.2 |
| 20260509070048 | 56 | 259 | 1.0 | 4.0 | 0.00 | 0.00 | 0.00 | 58 | 1011.2 |
| 20260509065536 | 56 | 290 | 2.0 | 4.0 | 0.00 | 0.00 | 0.00 | 58 | 1011.3 |
| 20260509065031 | 56 | 0 | 2.0 | 5.0 | 0.00 | 0.00 | 0.00 | 59 | 1011.3 |
| 20260509064544 | 56 | 288 | 1.0 | 5.0 | 0.00 | 0.00 | 0.00 | 59 | 1011.3 |
| 20260509064036 | 56 | 254 | 1.0 | 4.0 | 0.00 | 0.00 | 0.00 | 59 | 1011.4 |
| 20260509063535 | 55 | 0 | 1.0 | 7.0 | 0.00 | 0.00 | 0.00 | 60 | 1011.4 |
| 20260509063044 | 55 | 278 | 0.0 | 7.0 | 0.00 | 0.00 | 0.00 | 60 | 1011.5 |
| 20260509062535 | 55 | 283 | 2.0 | 6.0 | 0.00 | 0.00 | 0.00 | 60 | 1011.6 |
| 20260509062034 | 55 | 294 | 3.0 | 8.0 | 0.00 | 0.00 | 0.00 | 61 | 1011.6 |
| 20260509061549 | 54 | 325 | 3.0 | 8.0 | 0.00 | 0.00 | 0.00 | 62 | 1011.6 |
| 20260509061032 | 54 | 317 | 2.0 | 5.0 | 0.00 | 0.00 | 0.00 | 63 | 1011.6 |
| 20260509060535 | 54 | 311 | 2.0 | 4.0 | 0.00 | 0.00 | 0.00 | 63 | 1011.6 |
| 20260509060048 | 54 | 311 | 1.0 | 4.0 | 0.00 | 0.00 | 0.00 | 63 | 1011.7 |
| 20260509055533 | 54 | 271 | 1.0 | 4.0 | 0.00 | 0.00 | 0.00 | 62 | 1011.8 |
| 20260509055037 | 54 | 285 | 0.0 | 2.0 | 0.00 | 0.00 | 0.00 | 63 | 1011.7 |
| 20260509054548 | 54 | 0 | 0.0 | 3.0 | 0.00 | 0.00 | 0.00 | 63 | 1011.7 |
| 20260509054034 | 54 | 0 | 0.0 | 3.0 | 0.00 | 0.00 | 0.00 | 64 | 1011.8 |
| 20260509053532 | 54 | 294 | 0.0 | 2.0 | 0.00 | 0.00 | 0.00 | 63 | 1011.8 |
| 20260509053045 | 54 | 294 | 0.0 | 2.0 | 0.00 | 0.00 | 0.00 | 63 | 1011.8 |
| 20260509052533 | 55 | 0 | 0.0 | 2.0 | 0.00 | 0.00 | 0.00 | 61 | 1011.8 |
| 20260509052031 | 56 | 0 | 0.0 | 2.0 | 0.00 | 0.00 | 0.00 | 60 | 1011.7 |
| 20260509051544 | 57 | 294 | 0.0 | 3.0 | 0.00 | 0.00 | 0.00 | 58 | 1011.8 |
| 20260509051031 | 57 | 0 | 1.0 | 3.0 | 0.00 | 0.00 | 0.00 | 58 | 1011.8 |
| 20260509050535 | 57 | 273 | 1.0 | 3.0 | 0.00 | 0.00 | 0.00 | 58 | 1011.8 |
| 20260509050055 | 57 | 290 | 1.0 | 3.0 | 0.00 | 0.00 | 0.00 | 58 | 1011.8 |
| 20260509045535 | 58 | 268 | 0.0 | 3.0 | 0.00 | 0.00 | 0.00 | 57 | 1011.8 |
| 20260509045035 | 58 | 0 | 0.0 | 3.0 | 0.00 | 0.00 | 0.00 | 57 | 1011.7 |
| 20260509044548 | 58 | 0 | 0.0 | 8.0 | 0.00 | 0.00 | 0.00 | 56 | 1011.8 |
| 20260509044031 | 58 | 279 | 1.0 | 8.0 | 0.00 | 0.00 | 0.00 | 56 | 1011.8 |
| 20260509043531 | 58 | 277 | 2.0 | 8.0 | 0.00 | 0.00 | 0.00 | 57 | 1011.7 |
| 20260509043038 | 58 | 201 | 3.0 | 5.0 | 0.00 | 0.00 | 0.00 | 56 | 1011.7 |
| 20260509042533 | 58 | 204 | 2.0 | 4.0 | 0.00 | 0.00 | 0.00 | 57 | 1011.7 |
| 20260509042035 | 58 | 0 | 2.0 | 4.0 | 0.00 | 0.00 | 0.00 | 57 | 1011.8 |
| 20260509041547 | 58 | 207 | 1.0 | 4.0 | 0.00 | 0.00 | 0.00 | 58 | 1011.7 |
| 20260509041032 | 58 | 216 | 1.0 | 5.0 | 0.00 | 0.00 | 0.00 | 58 | 1011.7 |
| 20260509040536 | 58 | 246 | 2.0 | 6.0 | 0.00 | 0.00 | 0.00 | 58 | 1011.7 |
| 20260509040053 | 58 | 235 | 1.0 | 6.0 | 0.00 | 0.00 | 0.00 | 57 | 1011.6 |
| 20260509035531 | 58 | 243 | 0.0 | 4.0 | 0.00 | 0.00 | 0.00 | 58 | 1011.7 |
| 20260509035032 | 58 | 232 | 1.0 | 4.0 | 0.00 | 0.00 | 0.00 | 57 | 1011.6 |
| 20260509034557 | 58 | 242 | 2.0 | 5.0 | 0.00 | 0.00 | 0.00 | 57 | 1011.6 |
| 20260509034031 | 57 | 215 | 2.0 | 5.0 | 0.00 | 0.00 | 0.00 | 59 | 1011.8 |
| 20260509033533 | 56 | 249 | 2.0 | 4.0 | 0.00 | 0.00 | 0.00 | 61 | 1011.8 |
| 20260509033050 | 56 | 0 | 1.0 | 3.0 | 0.00 | 0.00 | 0.00 | 64 | 1011.8 |
| 20260509032534 | 56 | 259 | 1.0 | 3.0 | 0.00 | 0.00 | 0.00 | 64 | 1011.8 |
| 20260509032035 | 55 | 288 | 1.0 | 3.0 | 0.00 | 0.00 | 0.00 | 63 | 1011.9 |
| 20260509031552 | 55 | 257 | 1.0 | 3.0 | 0.00 | 0.00 | 0.00 | 63 | 1011.8 |
| 20260509031037 | 55 | 0 | 1.0 | 3.0 | 0.00 | 0.00 | 0.00 | 63 | 1011.8 |
| 20260509030534 | 56 | 299 | 1.0 | 3.0 | 0.00 | 0.00 | 0.00 | 62 | 1011.9 |
| 20260509030048 | 57 | 299 | 1.0 | 5.0 | 0.00 | 0.00 | 0.00 | 59 | 1011.8 |
| 20260509025531 | 58 | 277 | 2.0 | 5.0 | 0.00 | 0.00 | 0.00 | 55 | 1011.8 |
| 20260509025031 | 59 | 284 | 2.0 | 8.0 | 0.00 | 0.00 | 0.00 | 54 | 1011.9 |
| 20260509024543 | 59 | 246 | 2.0 | 11.0 | 0.00 | 0.00 | 0.00 | 54 | 1011.8 |
| 20260509024032 | 59 | 231 | 4.0 | 11.0 | 0.00 | 0.00 | 0.00 | 54 | 1011.9 |
| 20260509023532 | 58 | 255 | 1.0 | 4.0 | 0.00 | 0.00 | 0.00 | 54 | 1012.0 |
| 20260509023055 | 59 | 255 | 1.0 | 5.0 | 0.00 | 0.00 | 0.00 | 54 | 1011.9 |
| 20260509022531 | 59 | 296 | 1.0 | 7.0 | 0.00 | 0.00 | 0.00 | 54 | 1011.9 |
| 20260509022034 | 59 | 0 | 1.0 | 7.0 | 0.00 | 0.00 | 0.00 | 54 | 1012.0 |
| 20260509021544 | 58 | 286 | 1.0 | 4.0 | 0.00 | 0.00 | 0.00 | 54 | 1011.9 |
| 20260509021035 | 58 | 288 | 2.0 | 7.0 | 0.00 | 0.00 | 0.00 | 55 | 1011.9 |
| 20260509020532 | 58 | 271 | 2.0 | 7.0 | 0.00 | 0.00 | 0.00 | 54 | 1011.8 |
| 20260509020055 | 58 | 271 | 1.0 | 4.0 | 0.00 | 0.00 | 0.00 | 55 | 1011.7 |
| 20260509015531 | 58 | 300 | 1.0 | 6.0 | 0.00 | 0.00 | 0.00 | 55 | 1011.8 |
| 20260509015032 | 57 | 298 | 1.0 | 6.0 | 0.00 | 0.00 | 0.00 | 56 | 1011.8 |
| 20260509014545 | 57 | 0 | 1.0 | 6.0 | 0.00 | 0.00 | 0.00 | 59 | 1011.7 |
| 20260509014035 | 56 | 277 | 2.0 | 5.0 | 0.00 | 0.00 | 0.00 | 59 | 1011.7 |
| 20260509013532 | 56 | 292 | 2.0 | 5.0 | 0.00 | 0.00 | 0.00 | 61 | 1011.7 |
| 20260509013106 | 56 | 303 | 2.0 | 5.0 | 0.00 | 0.00 | 0.00 | 61 | 1011.7 |
| 20260509012535 | 54 | 277 | 3.0 | 5.0 | 0.00 | 0.00 | 0.00 | 64 | 1011.8 |
| 20260509012031 | 54 | 297 | 1.0 | 4.0 | 0.00 | 0.00 | 0.00 | 66 | 1011.7 |
| 20260509011543 | 53 | 298 | 2.0 | 4.0 | 0.00 | 0.00 | 0.00 | 65 | 1011.6 |
| 20260509011031 | 54 | 322 | 2.0 | 3.0 | 0.00 | 0.00 | 0.00 | 65 | 1011.6 |
| 20260509010532 | 55 | 345 | 0.0 | 2.0 | 0.00 | 0.00 | 0.00 | 64 | 1011.6 |
| 20260509010050 | 55 | 345 | 0.0 | 3.0 | 0.00 | 0.00 | 0.00 | 63 | 1011.5 |
| 20260509005533 | 56 | 0 | 1.0 | 3.0 | 0.00 | 0.00 | 0.00 | 62 | 1011.6 |
| 20260509005033 | 57 | 345 | 0.0 | 3.0 | 0.00 | 0.00 | 0.00 | 60 | 1011.6 |
| 20260509004543 | 57 | 345 | 1.0 | 3.0 | 0.00 | 0.00 | 0.00 | 59 | 1011.5 |
| 20260509004036 | 58 | 345 | 1.0 | 3.0 | 0.00 | 0.00 | 0.00 | 57 | 1011.4 |
| 20260509003533 | 59 | 345 | 0.0 | 3.0 | 0.00 | 0.00 | 0.00 | 56 | 1011.4 |
| 20260509003040 | 59 | 0 | 0.0 | 2.0 | 0.00 | 0.00 | 0.00 | 55 | 1011.3 |
| 20260509002536 | 60 | 0 | 0.0 | 2.0 | 0.00 | 0.00 | 0.00 | 54 | 1011.4 |
| 20260509002035 | 61 | 0 | 0.0 | 2.0 | 0.00 | 0.00 | 0.00 | 53 | 1011.4 |
| 20260509001550 | 62 | 317 | 0.0 | 3.0 | 0.00 | 0.00 | 0.00 | 50 | 1011.2 |
| 20260509001035 | 63 | 317 | 1.0 | 3.0 | 0.00 | 0.00 | 0.00 | 46 | 1011.1 |
| 20260509000535 | 64 | 0 | 0.0 | 2.0 | 0.00 | 0.00 | 0.00 | 44 | 1011.1 |
| 20260509000047 | 65 | 0 | 0.0 | 2.0 | 0.00 | 0.00 | 0.00 | 42 | 1010.9 |
| 20260508235535 | 66 | 157 | 0.0 | 4.0 | 0.00 | 0.00 | 0.00 | 41 | 1010.8 |
| 20260508235035 | 67 | 0 | 0.0 | 5.0 | 0.00 | 0.00 | 0.00 | 40 | 1010.7 |
| 20260508234543 | 67 | 163 | 2.0 | 6.0 | 0.00 | 0.00 | 0.00 | 38 | 1010.8 |
| 20260508234037 | 67 | 164 | 2.0 | 7.0 | 0.00 | 0.00 | 0.00 | 38 | 1010.8 |
| 20260508233537 | 68 | 159 | 3.0 | 11.0 | 0.00 | 0.00 | 0.00 | 37 | 1010.7 |
| 20260508233043 | 68 | 184 | 4.0 | 11.0 | 0.00 | 0.00 | 0.00 | 37 | 1010.7 |
| 20260508232535 | 68 | 148 | 5.0 | 11.0 | 0.00 | 0.00 | 0.00 | 36 | 1010.5 |
| 20260508232035 | 68 | 157 | 2.0 | 10.0 | 0.00 | 0.00 | 0.00 | 38 | 1010.6 |
| 20260508231551 | 68 | 171 | 4.0 | 10.0 | 0.00 | 0.00 | 0.00 | 36 | 1010.5 |
| 20260508231036 | 68 | 177 | 2.0 | 6.0 | 0.00 | 0.00 | 0.00 | 36 | 1010.6 |
| 20260508230536 | 68 | 151 | 3.0 | 6.0 | 0.00 | 0.00 | 0.00 | 36 | 1010.6 |
| 20260508230055 | 68 | 162 | 2.0 | 5.0 | 0.00 | 0.00 | 0.00 | 36 | 1010.6 |
| 20260508225536 | 68 | 167 | 1.0 | 4.0 | 0.00 | 0.00 | 0.00 | 38 | 1010.6 |
| 20260508225037 | 68 | 193 | 1.0 | 9.0 | 0.00 | 0.00 | 0.00 | 36 | 1010.6 |
| 20260508224559 | 69 | 181 | 2.0 | 9.0 | 0.00 | 0.00 | 0.00 | 37 | 1010.6 |
| 20260508224035 | 69 | 184 | 3.0 | 9.0 | 0.00 | 0.00 | 0.00 | 34 | 1010.5 |
| 20260508223538 | 69 | 140 | 2.0 | 6.0 | 0.00 | 0.00 | 0.00 | 33 | 1010.4 |
| 20260508223045 | 70 | 161 | 4.0 | 8.0 | 0.00 | 0.00 | 0.00 | 34 | 1010.6 |
| 20260508222533 | 70 | 164 | 3.0 | 8.0 | 0.00 | 0.00 | 0.00 | 33 | 1010.5 |
| 20260508222037 | 69 | 179 | 3.0 | 6.0 | 0.00 | 0.00 | 0.00 | 34 | 1010.6 |
| 20260508221558 | 69 | 0 | 1.0 | 6.0 | 0.00 | 0.00 | 0.00 | 35 | 1010.4 |
| 20260508221036 | 70 | 196 | 2.0 | 6.0 | 0.00 | 0.00 | 0.00 | 32 | 1010.4 |
| 20260508220532 | 70 | 198 | 2.0 | 6.0 | 0.00 | 0.00 | 0.00 | 34 | 1010.3 |
| 20260508220050 | 70 | 215 | 2.0 | 9.0 | 0.00 | 0.00 | 0.00 | 33 | 1010.3 |
| 20260508215536 | 70 | 184 | 4.0 | 10.0 | 0.00 | 0.00 | 0.00 | 32 | 1010.4 |
| 20260508215036 | 71 | 219 | 5.0 | 10.0 | 0.00 | 0.00 | 0.00 | 32 | 1010.4 |
| 20260508214547 | 71 | 190 | 3.0 | 12.0 | 0.00 | 0.00 | 0.00 | 32 | 1010.5 |
| 20260508214040 | 70 | 259 | 3.0 | 12.0 | 0.00 | 0.00 | 0.00 | 32 | 1010.3 |
| 20260508213537 | 70 | 215 | 2.0 | 9.0 | 0.00 | 0.00 | 0.00 | 33 | 1010.4 |
| 20260508213101 | 70 | 238 | 4.0 | 11.0 | 0.00 | 0.00 | 0.00 | 33 | 1010.6 |
| 20260508212536 | 70 | 222 | 3.0 | 11.0 | 0.00 | 0.00 | 0.00 | 33 | 1010.5 |
| 20260508212036 | 71 | 231 | 5.0 | 12.0 | 0.00 | 0.00 | 0.00 | 33 | 1010.6 |
| 20260508211550 | 70 | 330 | 6.0 | 12.0 | 0.00 | 0.00 | 0.00 | 31 | 1010.6 |
| 20260508211036 | 71 | 217 | 5.0 | 13.0 | 0.00 | 0.00 | 0.00 | 32 | 1010.6 |
| 20260508210536 | 70 | 230 | 4.0 | 13.0 | 0.00 | 0.00 | 0.00 | 33 | 1010.6 |
| 20260508210039 | 70 | 279 | 4.0 | 10.0 | 0.00 | 0.00 | 0.00 | 31 | 1010.7 |
| 20260508205534 | 70 | 244 | 3.0 | 9.0 | 0.00 | 0.00 | 0.00 | 33 | 1010.6 |
| 20260508205035 | 70 | 300 | 3.0 | 17.0 | 0.00 | 0.00 | 0.00 | 32 | 1010.7 |
| 20260508204544 | 69 | 242 | 5.0 | 17.0 | 0.00 | 0.00 | 0.00 | 32 | 1010.8 |
| 20260508204033 | 70 | 257 | 6.0 | 12.0 | 0.00 | 0.00 | 0.00 | 31 | 1011.0 |
| 20260508203536 | 70 | 338 | 1.0 | 8.0 | 0.00 | 0.00 | 0.00 | 33 | 1011.0 |
| 20260508203047 | 69 | 194 | 4.0 | 11.0 | 0.00 | 0.00 | 0.00 | 35 | 1010.9 |
| 20260508202534 | 68 | 5 | 5.0 | 12.0 | 0.00 | 0.00 | 0.00 | 33 | 1011.0 |
| 20260508202035 | 68 | 340 | 3.0 | 13.0 | 0.00 | 0.00 | 0.00 | 33 | 1011.1 |